WXM80 ListenWXM80 Stop

You find our weather info also at:

UK Metoffice

WeatherCloud

Weather Underground

Northeastern Weather Network

AWEKAS

Citizen Weather Observer Program (CWOP)

HAMweather, WeatherForYou, PWS Weather


Weather Underground History page Text

Daily Summary for May 15, 2017 Units:  Metric    English   Both
« Previous Day
Next Day »
Daily Weekly Monthly Yearly Custom
  High: Low: Average:
Temperature: 19.8 °C 11.4 °C 15.5 °C
Dew Point: 10.7 °C 7.4 °C 8.9 °C
Humidity: 80 % 52 % 66 %
Wind Speed: 17.5 km/h 1.9 km/h 8.2 km/h
Wind Gust: 33.8 km/h - -
Wind:- - WNW
Pressure: 1011.1 hPa 1000.6 hPa -
Precipitation: 0 mm    
Historical Graphs
 
 
Tabular Data for May 15, 2017
Time Temperature Dew Point Pressure Wind Wind Speed Wind Gust Humidity Rainfall Rate (Hourly)
00:00 12.7 °C 7.6 °C 1000.9 hPa West 6.6 km/h 24.1 km/h 71 % 0 mm
00:01 12.7 °C 7.4 °C 1000.9 hPa WNW 11.7 km/h 24.1 km/h 70 % 0 mm
00:06 12.7 °C 7.6 °C 1000.9 hPa WNW 9 km/h 29 km/h 71 % 0 mm
00:11 12.7 °C 7.6 °C 1000.9 hPa NW 12.7 km/h 18.5 km/h 71 % 0 mm
00:16 12.7 °C 7.6 °C 1000.6 hPa WNW 13 km/h 16.7 km/h 71 % 0 mm
00:21 12.7 °C 7.6 °C 1000.9 hPa NW 5.3 km/h 13 km/h 71 % 0 mm
00:26 12.6 °C 7.7 °C 1000.9 hPa NW 7.6 km/h 13 km/h 72 % 0 mm
00:31 12.6 °C 7.7 °C 1000.9 hPa West 9.3 km/h 20.4 km/h 72 % 0 mm
00:36 12.5 °C 7.6 °C 1000.9 hPa NNW 4.8 km/h 9.7 km/h 72 % 0 mm
00:41 12.4 °C 7.6 °C 1000.9 hPa WNW 5.3 km/h 13 km/h 72 % 0 mm
00:46 12.4 °C 7.7 °C 1000.9 hPa NW 6.1 km/h 14.5 km/h 73 % 0 mm
00:51 12.3 °C 7.6 °C 1000.6 hPa West 6.4 km/h 17.7 km/h 73 % 0 mm
00:56 12.3 °C 7.6 °C 1000.6 hPa WSW 10.1 km/h 14.8 km/h 73 % 0 mm
01:01 12.2 °C 7.5 °C 1000.6 hPa WSW 9 km/h 11.1 km/h 73 % 0 mm
01:07 12.2 °C 7.4 °C 1000.6 hPa West 8.5 km/h 18.5 km/h 73 % 0 mm
01:12 12.1 °C 7.6 °C 1000.6 hPa NW 4.8 km/h 18.5 km/h 74 % 0 mm
01:17 12.1 °C 7.6 °C 1000.9 hPa West 8.4 km/h 18.5 km/h 74 % 0 mm
01:22 12 °C 7.5 °C 1000.9 hPa SSW 3.5 km/h 13 km/h 74 % 0 mm
01:27 11.9 °C 7.4 °C 1000.9 hPa West 8.2 km/h 11.3 km/h 74 % 0 mm
01:32 11.9 °C 7.6 °C 1000.9 hPa NNW 9.5 km/h 18.5 km/h 75 % 0 mm
01:37 11.9 °C 7.4 °C 1000.9 hPa NW 10.5 km/h 13 km/h 74 % 0 mm
01:42 11.8 °C 7.6 °C 1000.6 hPa West 7.7 km/h 14.8 km/h 75 % 0 mm
01:47 11.8 °C 7.6 °C 1000.6 hPa West 6.8 km/h 11.1 km/h 75 % 0 mm
01:52 11.8 °C 7.5 °C 1000.6 hPa WSW 10.9 km/h 25.9 km/h 75 % 0 mm
01:57 11.8 °C 7.5 °C 1000.6 hPa West 7.2 km/h 22.2 km/h 75 % 0 mm
02:02 11.7 °C 7.4 °C 1000.6 hPa West 8.2 km/h 18.5 km/h 75 % 0 mm
02:07 11.7 °C 7.6 °C 1000.6 hPa WSW 8.5 km/h 20.4 km/h 76 % 0 mm
02:12 11.6 °C 7.5 °C 1000.6 hPa SW 8.9 km/h 18.5 km/h 76 % 0 mm
02:17 11.6 °C 7.4 °C 1000.9 hPa WNW 7.7 km/h 16.7 km/h 76 % 0 mm
02:22 11.5 °C 7.6 °C 1000.6 hPa SW 10.9 km/h 18.5 km/h 77 % 0 mm
02:27 11.4 °C 7.6 °C 1000.9 hPa West 7.6 km/h 18.5 km/h 77 % 0 mm
02:32 11.4 °C 7.6 °C 1000.6 hPa WSW 8.5 km/h 16.7 km/h 77 % 0 mm
02:37 11.4 °C 7.7 °C 1000.9 hPa SW 4.5 km/h 11.3 km/h 78 % 0 mm
02:42 11.4 °C 7.5 °C 1000.9 hPa WNW 14.2 km/h 19.3 km/h 77 % 0 mm
02:47 11.4 °C 7.7 °C 1000.9 hPa WSW 10.6 km/h 22.2 km/h 78 % 0 mm
02:52 11.4 °C 7.5 °C 1000.6 hPa WSW 8 km/h 18.5 km/h 77 % 0 mm
02:57 11.4 °C 7.7 °C 1000.9 hPa SW 10.5 km/h 11.3 km/h 78 % 0 mm
03:02 11.4 °C 7.7 °C 1000.9 hPa WSW 6.6 km/h 22.2 km/h 78 % 0 mm
03:07 11.4 °C 7.7 °C 1000.9 hPa WNW 4 km/h 11.1 km/h 78 % 0 mm
03:12 11.4 °C 7.7 °C 1000.9 hPa WSW 9.8 km/h 22.2 km/h 78 % 0 mm
03:18 11.4 °C 7.7 °C 1000.6 hPa West 7.1 km/h 25.9 km/h 78 % 0 mm
03:23 11.4 °C 7.7 °C 1000.9 hPa West 8.4 km/h 14.8 km/h 78 % 0 mm
03:28 11.4 °C 7.7 °C 1000.6 hPa SW 6.4 km/h 18.5 km/h 78 % 0 mm
03:33 11.4 °C 7.6 °C 1000.9 hPa SSW 10.6 km/h 27.8 km/h 77 % 0 mm
03:38 11.4 °C 7.7 °C 1000.6 hPa West 11.1 km/h 16.7 km/h 78 % 0 mm
03:43 11.5 °C 7.8 °C 1000.6 hPa WSW 11.3 km/h 18.5 km/h 78 % 0 mm
03:48 11.6 °C 7.7 °C 1000.6 hPa West 9 km/h 18.5 km/h 77 % 0 mm
03:53 11.6 °C 7.7 °C 1000.9 hPa WNW 10.5 km/h 18.5 km/h 77 % 0 mm
03:58 11.6 °C 7.7 °C 1000.6 hPa West 11.1 km/h 18.5 km/h 77 % 0 mm
04:03 11.6 °C 7.8 °C 1000.6 hPa NW 6 km/h 13 km/h 78 % 0 mm
04:08 11.6 °C 7.9 °C 1000.9 hPa WNW 6.6 km/h 18.5 km/h 78 % 0 mm
04:13 11.6 °C 7.9 °C 1000.6 hPa WNW 9.8 km/h 16.7 km/h 78 % 0 mm
04:18 11.6 °C 7.9 °C 1000.9 hPa West 8.9 km/h 18.5 km/h 78 % 0 mm
04:19 11.6 °C 7.9 °C 1000.6 hPa WNW 6.6 km/h 18.5 km/h 78 % 0 mm
04:24 11.6 °C 7.9 °C 1000.6 hPa NW 9.7 km/h 22.2 km/h 78 % 0 mm
04:29 11.6 °C 7.9 °C 1000.9 hPa West 1.9 km/h 18.5 km/h 78 % 0 mm
04:34 11.7 °C 7.9 °C 1000.9 hPa West 8.2 km/h 20.4 km/h 78 % 0 mm
04:39 11.7 °C 8.2 °C 1000.9 hPa NNW 6.8 km/h 12.9 km/h 79 % 0 mm
04:44 11.7 °C 8.2 °C 1000.9 hPa WNW 7.7 km/h 13 km/h 79 % 0 mm
04:49 11.7 °C 8.2 °C 1000.9 hPa WNW 11.4 km/h 20.9 km/h 79 % 0 mm
04:54 11.7 °C 8.2 °C 1000.9 hPa West 4.2 km/h 18.5 km/h 79 % 0 mm
04:59 11.7 °C 8.2 °C 1000.9 hPa WSW 9 km/h 14.8 km/h 79 % 0 mm
05:04 11.7 °C 8.2 °C 1000.9 hPa West 10.6 km/h 18.5 km/h 79 % 0 mm
05:09 11.8 °C 8.4 °C 1001.2 hPa WNW 8.2 km/h 25.9 km/h 80 % 0 mm
05:14 11.8 °C 8.4 °C 1000.9 hPa WNW 8.2 km/h 20.4 km/h 80 % 0 mm
05:19 11.8 °C 8.5 °C 1001.2 hPa West 8.9 km/h 16.7 km/h 80 % 0 mm
05:24 11.8 °C 8.5 °C 1001.2 hPa WNW 6.9 km/h 14.5 km/h 80 % 0 mm
05:29 11.9 °C 8.6 °C 1001.2 hPa WNW 6.6 km/h 20.4 km/h 80 % 0 mm
05:34 11.9 °C 8.6 °C 1001.6 hPa WSW 8.5 km/h 14.8 km/h 80 % 0 mm
05:39 12 °C 8.7 °C 1001.6 hPa WNW 10.9 km/h 22.5 km/h 80 % 0 mm
05:44 12.1 °C 8.7 °C 1001.6 hPa WNW 12.7 km/h 19.3 km/h 80 % 0 mm
05:49 12.1 °C 8.7 °C 1001.9 hPa WNW 10 km/h 22.5 km/h 80 % 0 mm
05:54 12.1 °C 8.7 °C 1001.6 hPa WNW 8 km/h 11.3 km/h 80 % 0 mm
05:59 12.1 °C 8.8 °C 1001.6 hPa WNW 2.7 km/h 7.4 km/h 80 % 0 mm
06:04 12.2 °C 8.6 °C 1001.9 hPa West 8.5 km/h 14.5 km/h 79 % 0 mm
06:09 12.2 °C 8.6 °C 1001.9 hPa WNW 5 km/h 12.9 km/h 79 % 0 mm
06:14 12.2 °C 8.9 °C 1001.9 hPa WNW 7.2 km/h 14.8 km/h 80 % 0 mm
06:19 12.2 °C 8.7 °C 1001.9 hPa West 6.4 km/h 14.8 km/h 79 % 0 mm
06:24 12.3 °C 8.7 °C 1001.9 hPa WSW 6.6 km/h 19.3 km/h 79 % 0 mm
06:29 12.3 °C 8.8 °C 1001.9 hPa West 5.6 km/h 16.1 km/h 79 % 0 mm
06:34 12.4 °C 8.8 °C 1001.9 hPa West 8 km/h 20.4 km/h 79 % 0 mm
06:39 12.4 °C 8.9 °C 1002.3 hPa WSW 4.5 km/h 9.7 km/h 79 % 0 mm
06:44 12.6 °C 9 °C 1002.3 hPa WNW 4.3 km/h 9.7 km/h 79 % 0 mm
06:49 12.7 °C 9.1 °C 1002.3 hPa WNW 7.4 km/h 16.7 km/h 79 % 0 mm
06:54 12.8 °C 9.3 °C 1002.3 hPa West 11.4 km/h 22.2 km/h 79 % 0 mm
06:59 13 °C 9.3 °C 1002.3 hPa NNW 8.5 km/h 20.9 km/h 78 % 0 mm
07:04 13.1 °C 9.2 °C 1002.3 hPa NNW 7.1 km/h 13 km/h 77 % 0 mm
07:09 13.3 °C 9.3 °C 1002.3 hPa West 7.6 km/h 22.2 km/h 77 % 0 mm
07:14 13.3 °C 9.4 °C 1002.3 hPa WNW 7.4 km/h 16.1 km/h 77 % 0 mm
07:19 13.5 °C 9.3 °C 1002.6 hPa NW 4.5 km/h 11.1 km/h 76 % 0 mm
07:24 13.6 °C 9.4 °C 1002.6 hPa West 7.2 km/h 17.7 km/h 76 % 0 mm
07:29 13.6 °C 9.4 °C 1002.6 hPa WSW 4.7 km/h 11.1 km/h 76 % 0 mm
07:34 13.6 °C 9.4 °C 1002.6 hPa WNW 6.8 km/h 9.3 km/h 76 % 0 mm
07:39 13.6 °C 9.4 °C 1002.6 hPa WSW 8.4 km/h 18.5 km/h 76 % 0 mm
07:44 13.6 °C 9.4 °C 1002.6 hPa West 6.3 km/h 18.5 km/h 76 % 0 mm
07:49 13.7 °C 9.8 °C 1002.6 hPa NW 2.9 km/h 7.4 km/h 77 % 0 mm
07:54 13.9 °C 10 °C 1002.6 hPa WNW 7.7 km/h 9.7 km/h 77 % 0 mm
08:00 14.1 °C 9.7 °C 1002.9 hPa WNW 9.8 km/h 18.5 km/h 75 % 0 mm
08:04 14.3 °C 9.9 °C 1002.6 hPa WSW 5.1 km/h 29.6 km/h 75 % 0 mm
08:09 14.3 °C 9.6 °C 1002.9 hPa WNW 11.4 km/h 18.5 km/h 73 % 0 mm
08:15 14.3 °C 9.7 °C 1002.9 hPa West 7.2 km/h 29.6 km/h 74 % 0 mm
08:20 14.4 °C 9.8 °C 1002.9 hPa West 14 km/h 27.8 km/h 74 % 0 mm
08:25 14.4 °C 9.6 °C 1002.9 hPa WNW 13.4 km/h 29.6 km/h 73 % 0 mm
08:27 14.4 °C 9.6 °C 1002.9 hPa NW 15.3 km/h 24.1 km/h 73 % 0 mm
08:32 14.4 °C 9.4 °C 1002.9 hPa NW 9.7 km/h 18.5 km/h 72 % 0 mm
08:37 14.4 °C 9.6 °C 1002.9 hPa WNW 12.2 km/h 18.5 km/h 73 % 0 mm
08:42 14.4 °C 9.4 °C 1003.3 hPa WNW 11.3 km/h 25.9 km/h 72 % 0 mm
08:47 14.5 °C 9.3 °C 1003.3 hPa SW 16.1 km/h 24.1 km/h 71 % 0 mm
08:52 14.6 °C 9.3 °C 1003.3 hPa SW 13.2 km/h 22.2 km/h 71 % 0 mm
08:57 14.6 °C 9.6 °C 1003.3 hPa NW 10.9 km/h 27.8 km/h 72 % 0 mm
08:58 14.6 °C 9.6 °C 1003.3 hPa WNW 12.6 km/h 18.5 km/h 72 % 0 mm
09:03 14.7 °C 9.4 °C 1003.3 hPa NW 10.8 km/h 24.1 km/h 71 % 0 mm
09:08 14.8 °C 9.3 °C 1003.3 hPa WNW 6.6 km/h 14.8 km/h 70 % 0 mm
09:13 14.8 °C 9.2 °C 1003.3 hPa WNW 10.6 km/h 22.2 km/h 69 % 0 mm
09:18 14.8 °C 9.2 °C 1003.3 hPa WNW 6.8 km/h 18.5 km/h 69 % 0 mm
09:23 14.9 °C 9.1 °C 1003.3 hPa NNW 7.1 km/h 18.5 km/h 68 % 0 mm
09:28 14.9 °C 9.5 °C 1003.6 hPa WNW 3.5 km/h 19.3 km/h 70 % 0 mm
09:34 15.1 °C 9.4 °C 1003.3 hPa NW 7.1 km/h 13 km/h 69 % 0 mm
09:39 15.2 °C 9.3 °C 1003.3 hPa WNW 9.7 km/h 18.5 km/h 68 % 0 mm
09:44 15.3 °C 9.6 °C 1003.3 hPa NNW 5.1 km/h 14.8 km/h 69 % 0 mm
09:49 15.4 °C 9.3 °C 1003.3 hPa West 9.8 km/h 16.7 km/h 67 % 0 mm
09:54 15.6 °C 9.7 °C 1003.6 hPa WNW 10.8 km/h 18.5 km/h 68 % 0 mm
09:59 15.7 °C 9.8 °C 1003.3 hPa WNW 10.8 km/h 20.4 km/h 68 % 0 mm
10:04 15.9 °C 9.1 °C 1003.3 hPa NW 10.8 km/h 18.5 km/h 64 % 0 mm
10:09 16.2 °C 9.2 °C 1003.3 hPa WNW 15.9 km/h 25.9 km/h 63 % 0 mm
10:14 16.4 °C 9.1 °C 1003.3 hPa WNW 13.7 km/h 25.9 km/h 62 % 0 mm
10:19 16.7 °C 9.3 °C 1003.6 hPa West 17.5 km/h 29.6 km/h 62 % 0 mm
10:24 16.8 °C 9.7 °C 1003.6 hPa NE 8.4 km/h 18.5 km/h 63 % 0 mm
10:29 16.8 °C 9.7 °C 1003.6 hPa NW 5 km/h 18.5 km/h 63 % 0 mm
10:34 16.9 °C 9.6 °C 1003.6 hPa WNW 12.9 km/h 22.2 km/h 62 % 0 mm
10:39 16.9 °C 9.6 °C 1003.6 hPa NW 8.9 km/h 24.1 km/h 62 % 0 mm
10:44 17 °C 9.4 °C 1003.9 hPa WNW 11.9 km/h 25.7 km/h 61 % 0 mm
10:49 17 °C 9.4 °C 1003.6 hPa NW 7.6 km/h 13 km/h 61 % 0 mm
10:54 17 °C 9.4 °C 1003.9 hPa WNW 11.3 km/h 18.5 km/h 61 % 0 mm
10:59 16.9 °C 9.4 °C 1003.9 hPa NW 7.2 km/h 18.5 km/h 61 % 0 mm
11:04 16.9 °C 9.4 °C 1003.6 hPa WNW 5 km/h 14.5 km/h 61 % 0 mm
11:09 16.9 °C 9.6 °C 1003.6 hPa NNE 7.9 km/h 14.8 km/h 62 % 0 mm
11:14 17.1 °C 10 °C 1003.6 hPa North 12.6 km/h 20.4 km/h 63 % 0 mm
11:19 17.5 °C 9.7 °C 1003.6 hPa NW 9 km/h 16.1 km/h 60 % 0 mm
11:24 18.1 °C 10.2 °C 1003.9 hPa NNW 10.1 km/h 18.5 km/h 60 % 0 mm
11:29 18.3 °C 10.7 °C 1003.9 hPa WNW 6.6 km/h 13 km/h 61 % 0 mm
11:30 18.3 °C 10.2 °C 1003.9 hPa NNW 12.6 km/h 22.5 km/h 59 % 0 mm
11:35 18.2 °C 9.2 °C 1003.9 hPa NW 13.8 km/h 18.5 km/h 56 % 0 mm
11:40 18.2 °C 10.3 °C 1003.9 hPa NNW 8.2 km/h 19.3 km/h 60 % 0 mm
11:45 18.4 °C 10.6 °C 1003.9 hPa NE 8 km/h 18.5 km/h 60 % 0 mm
11:50 18.8 °C 10.3 °C 1003.9 hPa North 8.5 km/h 18.5 km/h 58 % 0 mm
11:55 18.9 °C 10.2 °C 1003.9 hPa WNW 9.7 km/h 22.2 km/h 57 % 0 mm
12:00 18.8 °C 10.1 °C 1003.9 hPa WNW 4.3 km/h 22.2 km/h 57 % 0 mm
12:05 18.9 °C 10.5 °C 1003.9 hPa WNW 7.9 km/h 13 km/h 58 % 0 mm
12:10 19.1 °C 10.1 °C 1003.9 hPa WNW 8.4 km/h 16.7 km/h 56 % 0 mm
12:15 18.9 °C 9.7 °C 1003.9 hPa WNW 8.2 km/h 14.8 km/h 55 % 0 mm
12:20 18.9 °C 9.7 °C 1003.9 hPa WNW 11.6 km/h 20.4 km/h 55 % 0 mm
12:25 19 °C 9.5 °C 1003.9 hPa West 12.1 km/h 22.2 km/h 54 % 0 mm
12:30 19.1 °C 10.1 °C 1003.9 hPa ENE 11.1 km/h 22.2 km/h 56 % 0 mm
12:31 19.1 °C 10.1 °C 1003.9 hPa SW 9 km/h 22.2 km/h 56 % 0 mm
12:36 19.1 °C 9.8 °C 1003.9 hPa WNW 9.7 km/h 29 km/h 55 % 0 mm
12:41 18.9 °C 9.7 °C 1003.9 hPa NW 12.9 km/h 22.5 km/h 55 % 0 mm
12:46 18.8 °C 9.3 °C 1003.9 hPa NW 14.5 km/h 25.7 km/h 54 % 0 mm
12:51 18.7 °C 9.4 °C 1003.9 hPa NW 14.6 km/h 20.4 km/h 55 % 0 mm
12:56 18.7 °C 10.3 °C 1003.9 hPa NW 11.3 km/h 22.5 km/h 58 % 0 mm
13:01 18.9 °C 10.5 °C 1003.9 hPa NW 8.9 km/h 16.7 km/h 58 % 0 mm
13:06 19.1 °C 10.3 °C 1004.3 hPa NW 11.3 km/h 22.5 km/h 57 % 0 mm
13:11 19.1 °C 9.8 °C 1003.9 hPa NW 11.3 km/h 22.5 km/h 55 % 0 mm
13:16 18.9 °C 9.9 °C 1004.3 hPa West 7.7 km/h 20.9 km/h 56 % 0 mm
13:21 18.8 °C 9.3 °C 1004.3 hPa WNW 14.5 km/h 25.7 km/h 54 % 0 mm
13:26 18.8 °C 10.3 °C 1004.3 hPa WNW 8 km/h 33.8 km/h 58 % 0 mm
13:31 18.8 °C 10.3 °C 1004.3 hPa WNW 8 km/h 16.1 km/h 58 % 0 mm
13:36 18.8 °C 9.8 °C 1004.3 hPa WNW 4.8 km/h 19.3 km/h 56 % 0 mm
13:41 18.6 °C 9.6 °C 1004.3 hPa NW 9.7 km/h 20.9 km/h 56 % 0 mm
13:46 18.3 °C 9.3 °C 1004.3 hPa NW 9.7 km/h 27.4 km/h 56 % 0 mm
13:51 17.9 °C 9.2 °C 1004.3 hPa WNW 11.3 km/h 24.1 km/h 57 % 0 mm
13:55 17.6 °C 9 °C 1004.3 hPa WNW 10 km/h 25.9 km/h 57 % 0 mm
14:01 17.6 °C 9.2 °C 1004.3 hPa NW 11.4 km/h 18.5 km/h 58 % 0 mm
14:06 17.5 °C 9.7 °C 1004.6 hPa NW 8 km/h 24.1 km/h 60 % 0 mm
14:11 17.4 °C 9.6 °C 1004.6 hPa NW 11.3 km/h 24.1 km/h 60 % 0 mm
14:16 17.2 °C 9.4 °C 1004.6 hPa NW 9.7 km/h 29 km/h 60 % 0 mm
14:21 17.2 °C 9.3 °C 1004.6 hPa WNW 11.3 km/h 24.1 km/h 60 % 0 mm
14:26 17.1 °C 9.5 °C 1004.6 hPa NW 8 km/h 22.5 km/h 61 % 0 mm
14:31 17 °C 9.2 °C 1005 hPa WNW 8 km/h 22.5 km/h 60 % 0 mm
14:36 17 °C 9.4 °C 1005 hPa NW 11.3 km/h 20.9 km/h 61 % 0 mm
14:41 17 °C 9.9 °C 1005 hPa NW 4.8 km/h 16.1 km/h 63 % 0 mm
14:46 16.9 °C 10.1 °C 1005 hPa NW 4.8 km/h 19.3 km/h 64 % 0 mm
14:51 16.9 °C 9.6 °C 1005 hPa NW 8 km/h 19.3 km/h 62 % 0 mm
14:56 16.9 °C 9.6 °C 1005 hPa NW 11.3 km/h 19.3 km/h 62 % 0 mm
15:01 17 °C 9.9 °C 1005 hPa WSW 13 km/h 16.7 km/h 63 % 0 mm
15:06 17.1 °C 9.8 °C 1005 hPa WNW 4.8 km/h 27.4 km/h 62 % 0 mm
15:11 17.2 °C 9.3 °C 1004.6 hPa WNW 11.3 km/h 25.7 km/h 60 % 0 mm
15:16 17.3 °C 9.7 °C 1005 hPa WNW 9.7 km/h 20.9 km/h 61 % 0 mm
15:21 17.4 °C 10.1 °C 1004.6 hPa NW 9.7 km/h 19.3 km/h 62 % 0 mm
15:26 17.7 °C 10.1 °C 1004.6 hPa NW 8 km/h 22.5 km/h 61 % 0 mm
15:31 18.1 °C 10.5 °C 1004.6 hPa NW 9.7 km/h 20.9 km/h 61 % 0 mm
15:36 18.5 °C 10.1 °C 1004.6 hPa NW 11.3 km/h 24.1 km/h 58 % 0 mm
15:41 18.8 °C 10.7 °C 1004.6 hPa NW 8 km/h 19.3 km/h 59 % 0 mm
15:46 19.2 °C 10.7 °C 1004.6 hPa WNW 11.3 km/h 22.5 km/h 58 % 0 mm
15:51 19.3 °C 10.3 °C 1004.6 hPa WNW 7.2 km/h 20.4 km/h 56 % 0 mm
15:56 19.4 °C 10.2 °C 1004.6 hPa WNW 11.3 km/h 22.5 km/h 55 % 0 mm
16:01 19.6 °C 10.1 °C 1005 hPa WNW 6.9 km/h 18.5 km/h 54 % 0 mm
16:06 19.7 °C 9.8 °C 1005 hPa NW 5.3 km/h 27.8 km/h 53 % 0 mm
16:11 19.5 °C 9.7 °C 1005 hPa WSW 7.9 km/h 18.5 km/h 53 % 0 mm
16:16 19.5 °C 10.5 °C 1005 hPa WNW 5.1 km/h 16.7 km/h 56 % 0 mm
16:17 19.6 °C 10.6 °C 1005 hPa NNW 6.4 km/h 11.3 km/h 56 % 0 mm
16:22 19.6 °C 10.1 °C 1005 hPa NNW 6.4 km/h 16.7 km/h 54 % 0 mm
16:27 19.6 °C 9.8 °C 1005 hPa WNW 10.5 km/h 18.5 km/h 53 % 0 mm
16:32 19.7 °C 10.4 °C 1005.3 hPa WNW 9 km/h 19.3 km/h 55 % 0 mm
16:37 19.7 °C 9.6 °C 1005.3 hPa WNW 7.9 km/h 18.5 km/h 52 % 0 mm
16:42 19.8 °C 9.9 °C 1005.3 hPa West 11.1 km/h 22.2 km/h 53 % 0 mm
16:47 19.8 °C 9.6 °C 1005.3 hPa NW 10.3 km/h 22.2 km/h 52 % 0 mm
16:52 19.7 °C 10.1 °C 1005.3 hPa WNW 2.7 km/h 11.3 km/h 54 % 0 mm
16:57 19.6 °C 9.8 °C 1005.3 hPa WNW 8.9 km/h 18.5 km/h 53 % 0 mm
17:02 19.6 °C 9.7 °C 1005.3 hPa WNW 8.5 km/h 13 km/h 53 % 0 mm
17:07 19.4 °C 9.6 °C 1005.6 hPa WNW 8.9 km/h 13 km/h 53 % 0 mm
17:12 19.3 °C 9.7 °C 1005.6 hPa NW 5.8 km/h 11.1 km/h 54 % 0 mm
17:17 19.2 °C 9.9 °C 1005.6 hPa WSW 4.7 km/h 11.1 km/h 55 % 0 mm
17:22 19.1 °C 9.3 °C 1006 hPa NW 10.5 km/h 18.5 km/h 53 % 0 mm
17:27 18.9 °C 9.7 °C 1005.6 hPa NW 8 km/h 16.7 km/h 55 % 0 mm
17:32 18.9 °C 9.4 °C 1006 hPa NNW 6.1 km/h 14.8 km/h 54 % 0 mm
17:37 18.8 °C 9.3 °C 1006 hPa NE 8.5 km/h 16.1 km/h 54 % 0 mm
17:42 18.8 °C 9.6 °C 1006 hPa NNW 8.9 km/h 16.7 km/h 55 % 0 mm
17:47 18.7 °C 9.2 °C 1006 hPa WNW 8.5 km/h 20.4 km/h 54 % 0 mm
17:52 18.7 °C 9.2 °C 1006.3 hPa NE 4.5 km/h 18.5 km/h 54 % 0 mm
17:57 18.6 °C 8.8 °C 1006.3 hPa NNW 8 km/h 13 km/h 53 % 0 mm
18:03 18.5 °C 9 °C 1006.3 hPa WNW 9.3 km/h 20.9 km/h 54 % 0 mm
18:08 18.4 °C 8.7 °C 1006.3 hPa NNW 10.3 km/h 27.8 km/h 53 % 0 mm
18:13 18.3 °C 9.1 °C 1006.7 hPa North 4 km/h 14.5 km/h 55 % 0 mm
18:18 18.3 °C 8.6 °C 1006.7 hPa NNW 6.3 km/h 16.7 km/h 53 % 0 mm
18:23 18.3 °C 8.8 °C 1006.7 hPa North 10.1 km/h 18.5 km/h 54 % 0 mm
18:28 18.3 °C 8.8 °C 1006.7 hPa NW 4.3 km/h 18.5 km/h 54 % 0 mm
18:33 18.3 °C 8.8 °C 1006.7 hPa WNW 4.7 km/h 16.7 km/h 54 % 0 mm
18:38 18.3 °C 8.8 °C 1007 hPa ENE 5.5 km/h 16.7 km/h 54 % 0 mm
18:43 18.2 °C 8.7 °C 1007 hPa NW 6 km/h 11.1 km/h 54 % 0 mm
18:48 18.1 °C 8.9 °C 1007 hPa WNW 7.1 km/h 16.7 km/h 55 % 0 mm
18:53 18.1 °C 9.2 °C 1007.3 hPa NW 6.4 km/h 18.5 km/h 56 % 0 mm
18:58 18 °C 8.8 °C 1007.3 hPa NNE 3.7 km/h 13 km/h 55 % 0 mm
19:03 17.9 °C 8.5 °C 1007.3 hPa North 5.5 km/h 16.7 km/h 54 % 0 mm
19:08 17.9 °C 8.7 °C 1007.3 hPa NNW 6.8 km/h 20.4 km/h 55 % 0 mm
19:13 17.8 °C 8.9 °C 1007.3 hPa West 5.3 km/h 9.3 km/h 56 % 0 mm
19:18 17.7 °C 8.8 °C 1007.7 hPa North 6.4 km/h 14.5 km/h 56 % 0 mm
19:23 17.6 °C 8.7 °C 1007.3 hPa NNE 6.1 km/h 13 km/h 56 % 0 mm
19:28 17.6 °C 8.7 °C 1007.7 hPa NW 3.5 km/h 6.4 km/h 56 % 0 mm
19:33 17.5 °C 8.9 °C 1007.7 hPa WNW 2.7 km/h 7.4 km/h 57 % 0 mm
19:38 17.4 °C 8.8 °C 1008 hPa North 2.9 km/h 7.4 km/h 57 % 0 mm
19:43 17.3 °C 8.9 °C 1008 hPa WNW 5.3 km/h 8 km/h 58 % 0 mm
19:48 17.2 °C 9.1 °C 1008 hPa WNW 6 km/h 16.1 km/h 59 % 0 mm
19:53 17.1 °C 9 °C 1008 hPa NW 7.7 km/h 18.5 km/h 59 % 0 mm
19:58 16.9 °C 9.1 °C 1008 hPa NW 7.4 km/h 18.5 km/h 60 % 0 mm
20:03 16.9 °C 9.1 °C 1008.4 hPa NW 11.7 km/h 16.7 km/h 60 % 0 mm
20:09 16.8 °C 8.8 °C 1008.7 hPa NNW 8.2 km/h 16.7 km/h 59 % 0 mm
20:14 16.8 °C 8.9 °C 1008.7 hPa NW 10.3 km/h 20.4 km/h 60 % 0 mm
20:19 16.8 °C 8.9 °C 1008.7 hPa NW 6 km/h 13 km/h 60 % 0 mm
20:24 16.7 °C 8.9 °C 1008.7 hPa WNW 6.8 km/h 14.8 km/h 60 % 0 mm
20:29 16.7 °C 8.9 °C 1009 hPa WNW 7.7 km/h 16.7 km/h 60 % 0 mm
20:34 16.6 °C 8.8 °C 1009 hPa WNW 4.3 km/h 14.5 km/h 60 % 0 mm
20:39 16.6 °C 8.8 °C 1009 hPa WSW 9.3 km/h 16.7 km/h 60 % 0 mm
20:44 16.5 °C 8.7 °C 1009 hPa West 10 km/h 19.3 km/h 60 % 0 mm
20:49 16.4 °C 8.7 °C 1009.4 hPa NW 7.6 km/h 11.1 km/h 60 % 0 mm
20:54 16.4 °C 8.7 °C 1009.4 hPa West 10.1 km/h 18.5 km/h 60 % 0 mm
20:59 16.4 °C 8.6 °C 1009.7 hPa WNW 7.2 km/h 16.7 km/h 60 % 0 mm
21:04 16.3 °C 8.6 °C 1009.7 hPa NW 5.3 km/h 11.3 km/h 60 % 0 mm
21:09 16.3 °C 8.6 °C 1010 hPa NW 8.4 km/h 16.7 km/h 60 % 0 mm
21:14 16.3 °C 8.5 °C 1010 hPa WNW 6.1 km/h 9.3 km/h 60 % 0 mm
21:19 16.3 °C 8.5 °C 1010 hPa West 8.9 km/h 20.4 km/h 60 % 0 mm
21:24 16.3 °C 8.5 °C 1010 hPa WNW 8 km/h 14.8 km/h 60 % 0 mm
21:29 16.2 °C 8.4 °C 1010 hPa WNW 10.8 km/h 18.5 km/h 60 % 0 mm
21:34 16.2 °C 8.7 °C 1010 hPa NW 4.3 km/h 11.1 km/h 61 % 0 mm
21:39 16.2 °C 8.6 °C 1010 hPa WNW 5 km/h 11.1 km/h 61 % 0 mm
21:44 16.1 °C 8.6 °C 1010 hPa West 8.7 km/h 11.3 km/h 61 % 0 mm
21:49 16.1 °C 8.6 °C 1010 hPa WNW 6 km/h 16.7 km/h 61 % 0 mm
21:54 16 °C 8.5 °C 1010 hPa West 4.7 km/h 11.1 km/h 61 % 0 mm
21:59 15.9 °C 8.4 °C 1010 hPa West 3.2 km/h 9.3 km/h 61 % 0 mm
22:05 15.9 °C 8.4 °C 1010 hPa NW 7.9 km/h 9.3 km/h 61 % 0 mm
22:10 15.8 °C 8.3 °C 1010 hPa West 4.8 km/h 9.3 km/h 61 % 0 mm
22:15 15.8 °C 8.5 °C 1010 hPa West 3.5 km/h 9.3 km/h 62 % 0 mm
22:20 15.7 °C 8.4 °C 1010 hPa West 7.4 km/h 9.7 km/h 62 % 0 mm
22:25 15.7 °C 8.7 °C 1010 hPa WNW 3.1 km/h 8 km/h 63 % 0 mm
22:30 15.6 °C 8.6 °C 1010 hPa SW 5.1 km/h 7.4 km/h 63 % 0 mm
22:35 15.6 °C 8.8 °C 1010 hPa NW 4.7 km/h 9.3 km/h 64 % 0 mm
22:40 15.5 °C 8.7 °C 1010.4 hPa WSW 6.9 km/h 13 km/h 64 % 0 mm
22:45 15.4 °C 8.4 °C 1010.4 hPa West 2.1 km/h 7.4 km/h 63 % 0 mm
22:50 15.4 °C 8.4 °C 1010.4 hPa WSW 3.7 km/h 9.3 km/h 63 % 0 mm
22:55 15.3 °C 8.6 °C 1010 hPa WSW 4.8 km/h 9.3 km/h 64 % 0 mm
23:00 15.3 °C 8.6 °C 1010 hPa West 4.2 km/h 9.3 km/h 64 % 0 mm
23:05 15.3 °C 8.3 °C 1010.4 hPa WSW 2.9 km/h 9.3 km/h 63 % 0 mm
23:10 15.3 °C 8.5 °C 1010.4 hPa SW 2.4 km/h 13 km/h 64 % 0 mm
23:15 15.2 °C 8.4 °C 1010.4 hPa WSW 6.3 km/h 13 km/h 64 % 0 mm
23:20 15.2 °C 8.4 °C 1010.4 hPa WNW 4.7 km/h 5.6 km/h 64 % 0 mm
23:25 15.2 °C 8.4 °C 1010.7 hPa West 10.8 km/h 14.8 km/h 64 % 0 mm
23:30 15.2 °C 8.4 °C 1010.4 hPa SSW 5.5 km/h 16.7 km/h 64 % 0 mm
23:35 15.1 °C 8.3 °C 1010.7 hPa SW 7.7 km/h 9.3 km/h 64 % 0 mm
23:40 15.1 °C 8.3 °C 1011.1 hPa WNW 4.7 km/h 13 km/h 64 % 0 mm
23:45 15.1 °C 8.3 °C 1011.1 hPa WNW 4 km/h 11.1 km/h 64 % 0 mm
23:50 15.1 °C 8.5 °C 1011.1 hPa WNW 3.5 km/h 5.6 km/h 65 % 0 mm
23:55 15.1 °C 8.3 °C 1011.1 hPa West 6.8 km/h 7.4 km/h 64 % 0 mm
Crab Meadow Weather
Compliments of Weather Underground - 3 mb

Script developed by  Jim McMurry - jmcmurry@mwt.net Adapted for the template by  Wim van der Kuil - Leuven-Template.eu

Recycling: Americans use 2,500,000 plastic bottles every hour! Most of them are thrown away!